THORAD DELTA 1 DEB, 8403

Orbit data source: Space-Track

THORAD DELTA 1 DEB, 8403 is space debris in SSO originally from a launch on Fri, 15 Nov 1974 UTC launched from the Air Force Western Test Range (AFWTR). Debris objects in space refer to the collection of defunct objects orbiting the Earth. Examples of debris include non-operational satellites, rocket bodies, and fragments generated from explosions, collisions, or faulty payload assembly.

Loading next visibility...
Identifier
8403, 1974-089CF
Orbit
SSO
Country
Flag of USUS
Related business
Manufacturer
Unknown
Mission
Spacecraft
Bus & Motor
Unknown
Mass
Unknown
Launch date (UTC)
1974-11-15 (52 years ago)
Launch vehicle
Unknown
Launch site
Air Force Western Test Range (AFWTR)
Object type
Payload
Rocket body
Debris
Shape & HBR
Unknown shape, 0.1 m
Radar Cross Section
Medium (>0.1 m² and <1 m²)

Expand to show TLE details & history
Last TLE update: 1 day ago

TLE from 1 day ago
0 THORAD DELTA 1 DEB
1 08403U 74089CF  26207.20752307 -.00000051  00000-0 -51354-4 0  9996
2 08403 101.5474 304.5226 0054367 325.6464  63.2631 12.47077532354366
Epoch: 2026-07-26T04:58Z
TLE epoch observation values (Epoch: 2026-07-26T04:58:49.993Z)
Latitude
28.85906°
Longitude
-80.5276°
Altitude
1,461.002 km
Speed
7.143 km/s
True Right ascension
19h 52m 21s
True Declination
28° 43' 37"
Sunlit
Object was in full shadow at epoch
Visualization orbit readout
Latitude
Unknown
Longitude
Unknown
Altitude
Unknown
Speed
Unknown
Apparent Right ascension
Unknown
Apparent Declination
Unknown
Sunlit
N/A
Visualization observer readout
Local Sidereal Time
19:17:27
Azimuth
Unknown
Elevation
Unknown
Doppler factor
Unknown
Orbital elements
Apogee altitude
1,516.973 km
Perigee altitude
1,431.59 km
Semi-major axis
7,852.419 km
Eccentricity
0.00544
Inclination
101.5474°
RAAN
304.5226°
Arg. of periapsis
325.6464°
True anomaly
63.82119°
Mean anomaly
63.2631°
Eccentric anomaly
63.54197°
Mean motion
3.11916 °/min
Orbital period
115.42 mins
BSTAR
-0.000051354
Loading maneuver chart data...
Computing Atmospheric mass density...
Loading historical data...
Loading historical data...
Loading historical data...
Loading historical data...
Loading historical data...
Loading historical data...
Loading historical data...

Documentation

Showing up to 5 results
|